Time,TemperatureF,DewpointF,PressureIn,WindDirection,WindDirectionDegrees,WindSpeedMPH,WindSpeedGustMPH,Humidity,HourlyPrecipIn,Conditions,Clouds,dailyrainin,SoftwareType,DateUTC
2013-01-11 00:00:00,39.7,18.5,29.09,ENE,62,5.4,6.3,42,0.00,,---,0.00,VWS V13.00,2013-01-11 05:00:00,
2013-01-11 00:03:00,39.9,19.2,29.09,ENE,65,4.9,5.4,43,0.00,,---,0.00,VWS V13.00,2013-01-11 05:03:00,
2013-01-11 00:08:00,39.9,18.7,29.09,ENE,57,4.9,5.4,42,0.00,,---,0.00,VWS V13.00,2013-01-11 05:08:00,
2013-01-11 00:14:00,39.9,19.2,29.06,East,90,3.6,6.3,43,0.00,,---,0.00,VWS V13.00,2013-01-11 05:14:00,
2013-01-11 00:19:00,39.9,19.2,29.06,East,81,2.7,6.3,43,0.00,,---,0.00,VWS V13.00,2013-01-11 05:19:00,
2013-01-11 00:24:00,39.7,19.1,29.06,ENE,69,0.0,2.7,43,0.00,,---,0.00,VWS V13.00,2013-01-11 05:24:00,
2013-01-11 00:29:00,40.1,19.4,29.06,East,79,2.7,6.3,43,0.00,,---,0.00,VWS V13.00,2013-01-11 05:29:00,
2013-01-11 00:34:00,39.9,19.2,29.06,ENE,61,3.6,6.3,43,0.00,,---,0.00,VWS V13.00,2013-01-11 05:34:00,
2013-01-11 00:39:00,40.1,19.4,29.06,NE,56,0.0,6.3,43,0.00,,---,0.00,VWS V13.00,2013-01-11 05:39:00,
2013-01-11 00:44:00,39.9,19.2,29.06,East,89,3.6,3.6,43,0.00,,---,0.00,VWS V13.00,2013-01-11 05:44:00,
2013-01-11 00:49:00,40.3,19.0,29.06,ENE,70,5.8,5.8,42,0.00,,---,0.00,VWS V13.00,2013-01-11 05:49:00,
2013-01-11 00:54:00,40.6,19.4,29.06,ENE,72,5.8,5.8,42,0.00,,---,0.00,VWS V13.00,2013-01-11 05:54:00,
2013-01-11 00:59:00,40.8,19.5,29.06,East,89,3.1,5.8,42,0.00,,---,0.00,VWS V13.00,2013-01-11 05:59:00,
2013-01-11 01:04:00,41.0,19.1,29.06,East,82,4.0,5.8,41,0.00,,---,0.00,VWS V13.00,2013-01-11 06:04:00,
2013-01-11 01:09:00,40.8,19.5,29.06,ENE,67,4.0,5.8,42,0.00,,---,0.00,VWS V13.00,2013-01-11 06:09:00,
2013-01-11 01:15:00,41.2,19.3,29.06,East,87,3.1,5.8,41,0.00,,---,0.00,VWS V13.00,2013-01-11 06:15:00,
2013-01-11 01:20:00,41.2,19.3,29.06,ESE,107,5.4,5.4,41,0.00,,---,0.00,VWS V13.00,2013-01-11 06:20:00,
2013-01-11 01:25:00,41.4,19.5,29.06,ENE,63,5.4,5.8,41,0.00,,---,0.00,VWS V13.00,2013-01-11 06:25:00,
2013-01-11 01:30:00,41.5,19.6,29.06,ENE,73,0.0,5.8,41,0.00,,---,0.00,VWS V13.00,2013-01-11 06:30:00,
2013-01-11 01:35:00,41.7,19.8,29.06,NE,55,5.4,8.1,41,0.00,,---,0.00,VWS V13.00,2013-01-11 06:35:00,
2013-01-11 01:41:00,41.5,19.6,29.03,ENE,63,5.8,5.8,41,0.00,,---,0.00,VWS V13.00,2013-01-11 06:41:00,
2013-01-11 01:46:00,41.5,19.6,29.03,ENE,74,5.8,5.8,41,0.00,,---,0.00,VWS V13.00,2013-01-11 06:46:00,
2013-01-11 01:51:00,41.7,19.8,29.03,East,87,4.9,7.6,41,0.00,,---,0.00,VWS V13.00,2013-01-11 06:51:00,
2013-01-11 01:56:00,41.7,19.8,29.03,East,90,4.0,7.6,41,0.00,,---,0.00,VWS V13.00,2013-01-11 06:56:00,
2013-01-11 02:01:00,41.7,19.8,29.03,East,97,4.0,4.9,41,0.00,,---,0.00,VWS V13.00,2013-01-11 07:01:00,
2013-01-11 02:06:00,41.9,19.9,29.03,ENE,75,3.1,8.7,41,0.00,,---,0.00,VWS V13.00,2013-01-11 07:06:00,
2013-01-11 02:11:00,42.1,20.1,29.03,East,83,4.0,8.7,41,0.00,,---,0.00,VWS V13.00,2013-01-11 07:11:00,
2013-01-11 02:16:00,42.1,20.1,29.03,East,86,3.6,9.2,41,0.00,,---,0.00,VWS V13.00,2013-01-11 07:16:00,
2013-01-11 02:21:00,42.3,20.3,29.03,East,85,3.1,3.1,41,0.00,,---,0.00,VWS V13.00,2013-01-11 07:21:00,
2013-01-11 02:26:00,42.4,19.8,29.03,East,83,5.4,7.6,40,0.00,,---,0.00,VWS V13.00,2013-01-11 07:26:00,
2013-01-11 02:32:00,42.4,20.4,29.03,ENE,77,5.4,7.6,41,0.00,,---,0.00,VWS V13.00,2013-01-11 07:32:00,
2013-01-11 02:37:00,42.3,20.3,29.03,East,96,4.0,7.6,41,0.00,,---,0.00,VWS V13.00,2013-01-11 07:37:00,
2013-01-11 02:42:00,42.6,20.0,29.03,East,79,4.9,7.6,40,0.00,,---,0.00,VWS V13.00,2013-01-11 07:42:00,
2013-01-11 02:47:00,42.4,20.4,29.03,East,95,2.7,7.6,41,0.00,,---,0.00,VWS V13.00,2013-01-11 07:47:00,
2013-01-11 02:52:00,42.4,20.4,29.03,ENE,71,4.0,7.6,41,0.00,,---,0.00,VWS V13.00,2013-01-11 07:52:00,
2013-01-11 02:57:00,42.6,20.6,29.03,East,91,4.0,7.6,41,0.00,,---,0.00,VWS V13.00,2013-01-11 07:57:00,
2013-01-11 03:02:00,42.6,20.6,29.03,East,91,2.7,6.3,41,0.00,,---,0.00,VWS V13.00,2013-01-11 08:02:00,
2013-01-11 03:07:00,42.8,20.2,29.03,ENE,73,5.4,7.2,40,0.00,,---,0.00,VWS V13.00,2013-01-11 08:07:00,
2013-01-11 03:12:00,42.6,20.6,29.03,East,96,4.0,7.2,41,0.00,,---,0.00,VWS V13.00,2013-01-11 08:12:00,
2013-01-11 03:18:00,42.6,20.6,29.03,ENE,68,4.0,7.2,41,0.00,,---,0.00,VWS V13.00,2013-01-11 08:18:00,
2013-01-11 03:23:00,42.4,20.4,29.03,East,87,4.0,4.9,41,0.00,,---,0.00,VWS V13.00,2013-01-11 08:23:00,
2013-01-11 03:28:00,42.8,20.8,29.03,East,96,4.9,9.2,41,0.00,,---,0.00,VWS V13.00,2013-01-11 08:28:00,
2013-01-11 03:33:00,42.8,20.8,29.03,East,89,4.0,9.2,41,0.00,,---,0.00,VWS V13.00,2013-01-11 08:33:00,
2013-01-11 03:38:00,42.8,20.8,29.03,East,98,4.9,9.2,41,0.00,,---,0.00,VWS V13.00,2013-01-11 08:38:00,
2013-01-11 03:43:00,42.6,21.1,29.03,East,82,5.8,5.8,42,0.00,,---,0.00,VWS V13.00,2013-01-11 08:43:00,
2013-01-11 03:48:00,42.6,21.1,29.03,East,95,4.0,6.3,42,0.00,,---,0.00,VWS V13.00,2013-01-11 08:48:00,
2013-01-11 03:53:00,42.8,21.3,29.03,ENE,75,5.4,6.3,42,0.00,,---,0.00,VWS V13.00,2013-01-11 08:53:00,
2013-01-11 03:59:00,42.6,21.1,29.00,ENE,69,3.1,8.1,42,0.00,,---,0.00,VWS V13.00,2013-01-11 08:59:00,
2013-01-11 04:04:00,42.8,21.3,29.00,ENE,77,8.1,8.1,42,0.00,,---,0.00,VWS V13.00,2013-01-11 09:04:00,
2013-01-11 04:09:00,43.0,21.5,29.00,ENE,68,5.8,8.1,42,0.00,,---,0.00,VWS V13.00,2013-01-11 09:09:00,
2013-01-11 04:14:00,43.2,21.6,29.00,ENE,61,7.6,8.1,42,0.00,,---,0.00,VWS V13.00,2013-01-11 09:14:00,
2013-01-11 04:19:00,43.3,21.8,29.00,East,81,5.4,8.3,42,0.00,,---,0.00,VWS V13.00,2013-01-11 09:19:00,
2013-01-11 04:24:00,43.3,21.8,29.00,East,80,6.3,6.7,42,0.00,,---,0.00,VWS V13.00,2013-01-11 09:24:00,
2013-01-11 04:29:00,43.3,21.8,29.00,ENE,76,6.7,10.5,42,0.00,,---,0.00,VWS V13.00,2013-01-11 09:29:00,
2013-01-11 04:34:00,43.3,21.8,29.00,East,91,5.4,10.5,42,0.00,,---,0.00,VWS V13.00,2013-01-11 09:34:00,
2013-01-11 04:40:00,43.3,22.4,28.97,East,80,5.4,10.5,43,0.00,,---,0.00,VWS V13.00,2013-01-11 09:40:00,
2013-01-11 04:45:00,43.2,22.2,28.97,East,85,4.0,6.3,43,0.00,,---,0.00,VWS V13.00,2013-01-11 09:45:00,
2013-01-11 04:50:00,43.0,22.0,28.97,East,85,4.0,8.3,43,0.00,,---,0.00,VWS V13.00,2013-01-11 09:50:00,
2013-01-11 04:55:00,43.0,22.0,28.97,East,95,2.7,8.3,43,0.00,,---,0.00,VWS V13.00,2013-01-11 09:55:00,
2013-01-11 05:00:00,43.0,22.6,28.97,SE,133,2.7,2.7,44,0.00,,---,0.00,VWS V13.00,2013-01-11 10:00:00,
2013-01-11 05:05:00,42.8,22.4,28.97,NE,40,4.0,5.4,44,0.00,,---,0.00,VWS V13.00,2013-01-11 10:05:00,
2013-01-11 05:10:00,43.3,22.9,28.97,ESE,108,3.6,7.6,44,0.00,,---,0.00,VWS V13.00,2013-01-11 10:10:00,
2013-01-11 05:15:00,43.3,22.9,28.97,ENE,74,3.6,7.6,44,0.00,,---,0.00,VWS V13.00,2013-01-11 10:15:00,
2013-01-11 05:20:00,43.3,22.9,28.97,ENE,77,3.6,3.6,44,0.00,,---,0.00,VWS V13.00,2013-01-11 10:20:00,
2013-01-11 05:25:00,43.3,22.9,28.97,ENE,68,2.2,5.8,44,0.00,,---,0.00,VWS V13.00,2013-01-11 10:25:00,
2013-01-11 05:30:00,43.3,22.9,28.97,ESE,114,0.0,5.8,44,0.00,,---,0.00,VWS V13.00,2013-01-11 10:30:00,
2013-01-11 05:35:00,43.3,22.9,28.97,SE,139,2.2,5.8,44,0.00,,---,0.00,VWS V13.00,2013-01-11 10:35:00,
2013-01-11 05:40:00,43.2,23.3,28.97,East,96,3.6,3.6,45,0.00,,---,0.00,VWS V13.00,2013-01-11 10:40:00,
2013-01-11 05:45:00,43.2,23.3,28.97,ENE,64,2.7,5.4,45,0.00,,---,0.00,VWS V13.00,2013-01-11 10:45:00,
2013-01-11 05:50:00,43.0,23.6,28.97,ENE,62,0.0,5.4,46,0.00,,---,0.00,VWS V13.00,2013-01-11 10:50:00,
2013-01-11 05:56:00,43.3,23.4,28.94,NNE,21,0.0,5.4,45,0.00,,---,0.00,VWS V13.00,2013-01-11 10:56:00,
2013-01-11 06:01:00,43.5,23.6,28.94,East,87,2.7,5.4,45,0.00,,---,0.00,VWS V13.00,2013-01-11 11:01:00,
2013-01-11 06:06:00,43.5,24.1,28.94,ENE,78,3.6,5.4,46,0.00,,---,0.00,VWS V13.00,2013-01-11 11:06:00,
2013-01-11 06:11:00,43.7,23.8,28.94,ENE,62,0.0,5.8,45,0.00,,---,0.00,VWS V13.00,2013-01-11 11:11:00,
2013-01-11 06:16:00,43.7,23.8,28.94,East,97,3.1,5.8,45,0.00,,---,0.00,VWS V13.00,2013-01-11 11:16:00,
2013-01-11 06:21:00,43.9,23.9,28.94,ENE,72,3.1,4.0,45,0.00,,---,0.00,VWS V13.00,2013-01-11 11:21:00,
2013-01-11 06:26:00,43.9,23.9,28.94,East,98,4.0,5.8,45,0.00,,---,0.00,VWS V13.00,2013-01-11 11:26:00,
2013-01-11 06:31:00,43.7,24.3,28.94,ENE,71,3.1,6.3,46,0.00,,---,0.00,VWS V13.00,2013-01-11 11:31:00,
2013-01-11 06:36:00,43.7,24.3,28.94,East,101,4.0,6.3,46,0.00,,---,0.00,VWS V13.00,2013-01-11 11:36:00,
2013-01-11 06:41:00,43.9,24.5,28.94,NE,48,3.6,5.8,46,0.00,,---,0.00,VWS V13.00,2013-01-11 11:41:00,
2013-01-11 06:46:00,44.1,24.6,28.94,East,88,5.4,7.6,46,0.00,,---,0.00,VWS V13.00,2013-01-11 11:46:00,
2013-01-11 06:51:00,44.1,24.6,28.94,East,95,4.9,8.7,46,0.00,,---,0.00,VWS V13.00,2013-01-11 11:51:00,
2013-01-11 06:56:00,44.1,24.6,28.94,ENE,68,4.0,8.7,46,0.00,,---,0.00,VWS V13.00,2013-01-11 11:56:00,
2013-01-11 07:01:00,44.1,25.1,28.94,West,277,0.0,3.1,47,0.00,,---,0.00,VWS V13.00,2013-01-11 12:01:00,
2013-01-11 07:06:00,44.1,25.6,28.94,ESE,119,0.0,5.8,48,0.00,,---,0.00,VWS V13.00,2013-01-11 12:06:00,
2013-01-11 07:11:00,43.9,26.0,28.94,ENE,72,5.4,5.8,49,0.00,,---,0.00,VWS V13.00,2013-01-11 12:11:00,
2013-01-11 07:17:00,43.3,27.8,28.94,East,96,4.0,5.8,54,0.00,,---,0.00,VWS V13.00,2013-01-11 12:17:00,
2013-01-11 07:22:00,42.4,30.0,28.94,East,89,4.9,7.6,61,0.00,,---,0.00,VWS V13.00,2013-01-11 12:22:00,
2013-01-11 07:27:00,41.9,31.8,28.94,East,88,3.1,8.3,67,0.00,,---,0.00,VWS V13.00,2013-01-11 12:27:00,
2013-01-11 07:32:00,41.5,32.8,28.94,East,95,5.4,8.3,71,0.00,,---,0.00,VWS V13.00,2013-01-11 12:32:00,
2013-01-11 07:37:00,41.5,33.5,28.94,ENE,68,5.4,8.3,73,0.00,,---,0.00,VWS V13.00,2013-01-11 12:37:00,
2013-01-11 07:42:00,41.4,33.7,28.91,East,79,4.9,5.8,74,0.00,,---,0.00,VWS V13.00,2013-01-11 12:42:00,
2013-01-11 07:47:00,41.4,33.7,28.91,East,92,4.0,6.3,74,0.00,,---,0.00,VWS V13.00,2013-01-11 12:47:00,
2013-01-11 07:52:00,41.4,33.7,28.91,SE,139,5.4,6.3,74,0.00,,---,0.00,VWS V13.00,2013-01-11 12:52:00,
2013-01-11 07:57:00,41.5,33.2,28.91,ENE,64,4.0,7.6,72,0.00,,---,0.00,VWS V13.00,2013-01-11 12:57:00,
2013-01-11 08:02:00,41.7,33.0,28.91,ENE,65,3.1,7.2,71,0.00,,---,0.00,VWS V13.00,2013-01-11 13:02:00,
2013-01-11 08:07:00,41.9,32.8,28.91,ENE,70,5.4,7.2,70,0.00,,---,0.00,VWS V13.00,2013-01-11 13:07:00,
2013-01-11 08:12:00,42.1,33.0,28.91,ENE,78,2.7,7.2,70,0.00,,---,0.00,VWS V13.00,2013-01-11 13:12:00,
2013-01-11 08:18:00,41.9,33.2,28.91,East,83,3.1,7.2,71,0.00,,---,0.00,VWS V13.00,2013-01-11 13:18:00,
2013-01-11 08:23:00,42.1,33.0,28.91,East,90,3.6,6.3,70,0.00,,---,0.00,VWS V13.00,2013-01-11 13:23:00,
2013-01-11 08:28:00,42.1,33.4,28.91,ENE,57,2.7,6.3,71,0.00,,---,0.00,VWS V13.00,2013-01-11 13:28:00,
2013-01-11 08:33:00,42.1,33.7,28.91,ENE,65,2.2,6.3,72,0.00,,---,0.00,VWS V13.00,2013-01-11 13:33:00,
2013-01-11 08:38:00,41.7,33.4,28.91,NE,49,3.1,6.3,72,0.00,,---,0.00,VWS V13.00,2013-01-11 13:38:00,
2013-01-11 08:43:00,42.1,33.0,28.91,East,86,6.3,6.3,70,0.00,,---,0.00,VWS V13.00,2013-01-11 13:43:00,
2013-01-11 08:48:00,42.1,33.4,28.91,ENE,76,4.9,6.3,71,0.00,,---,0.00,VWS V13.00,2013-01-11 13:48:00,
2013-01-11 08:53:00,42.1,33.4,28.91,East,82,5.8,6.3,71,0.00,,---,0.00,VWS V13.00,2013-01-11 13:53:00,
2013-01-11 08:58:00,42.3,33.5,28.88,ENE,63,4.9,6.3,71,0.00,,---,0.00,VWS V13.00,2013-01-11 13:58:00,
2013-01-11 09:03:00,42.6,33.5,28.88,ENE,63,3.1,4.9,70,0.00,,---,0.00,VWS V13.00,2013-01-11 14:03:00,
2013-01-11 09:09:00,43.2,33.7,28.88,ESE,110,3.6,7.6,69,0.00,,---,0.00,VWS V13.00,2013-01-11 14:09:00,
2013-01-11 09:14:00,43.5,33.7,28.88,East,98,4.9,7.6,68,0.00,,---,0.00,VWS V13.00,2013-01-11 14:14:00,
2013-01-11 09:19:00,43.7,33.8,28.88,SE,131,0.0,7.6,68,0.00,,---,0.00,VWS V13.00,2013-01-11 14:19:00,
2013-01-11 09:24:00,44.1,34.2,28.88,ESE,104,3.1,6.7,68,0.00,,---,0.00,VWS V13.00,2013-01-11 14:24:00,
2013-01-11 09:29:00,44.1,34.2,28.88,ENE,72,3.1,8.3,68,0.00,,---,0.00,VWS V13.00,2013-01-11 14:29:00,
2013-01-11 09:34:00,44.1,34.2,28.88,East,88,5.4,8.3,68,0.00,,---,0.00,VWS V13.00,2013-01-11 14:34:00,
2013-01-11 09:39:00,44.4,34.5,28.88,East,93,4.9,8.3,68,0.00,,---,0.00,VWS V13.00,2013-01-11 14:39:00,
2013-01-11 09:44:00,44.6,34.7,28.88,East,85,3.6,7.6,68,0.00,,---,0.00,VWS V13.00,2013-01-11 14:44:00,
2013-01-11 09:49:00,44.8,35.2,28.88,East,88,2.2,7.6,69,0.00,,---,0.00,VWS V13.00,2013-01-11 14:49:00,
2013-01-11 09:54:00,45.0,35.4,28.85,ESE,102,3.6,7.6,69,0.00,,---,0.00,VWS V13.00,2013-01-11 14:54:00,
2013-01-11 09:59:00,45.1,35.6,28.85,SE,128,3.6,8.1,69,0.00,,---,0.00,VWS V13.00,2013-01-11 14:59:00,
2013-01-11 10:04:00,45.3,35.8,28.85,East,90,4.9,8.1,69,0.00,,---,0.00,VWS V13.00,2013-01-11 15:04:00,
2013-01-11 10:10:00,45.3,35.8,28.85,NE,47,5.4,8.1,69,0.00,,---,0.00,VWS V13.00,2013-01-11 15:10:00,
2013-01-11 10:15:00,45.5,35.9,28.85,ESE,119,3.6,8.1,69,0.00,,---,0.00,VWS V13.00,2013-01-11 15:15:00,
2013-01-11 10:20:00,45.9,35.9,28.85,East,89,4.0,8.1,68,0.00,,---,0.00,VWS V13.00,2013-01-11 15:20:00,
2013-01-11 10:25:00,46.0,36.1,28.85,East,95,4.0,8.1,68,0.00,,---,0.00,VWS V13.00,2013-01-11 15:25:00,
2013-01-11 10:30:00,46.2,36.3,28.85,ESE,111,4.9,8.3,68,0.00,,---,0.00,VWS V13.00,2013-01-11 15:30:00,
2013-01-11 10:35:00,46.2,36.6,28.85,ENE,71,2.7,8.3,69,0.00,,---,0.00,VWS V13.00,2013-01-11 15:35:00,
2013-01-11 10:40:00,46.0,37.9,28.85,East,97,3.1,5.4,73,0.00,,---,0.00,VWS V13.00,2013-01-11 15:40:00,
2013-01-11 10:45:00,45.7,38.6,28.85,East,84,5.8,5.8,76,0.00,,---,0.00,VWS V13.00,2013-01-11 15:45:00,
2013-01-11 10:50:00,45.0,39.5,28.85,East,82,5.8,8.7,81,0.04,,---,0.04,VWS V13.00,2013-01-11 15:50:00,
2013-01-11 10:56:00,44.6,40.4,28.82,SE,125,4.0,8.7,85,0.04,,---,0.04,VWS V13.00,2013-01-11 15:56:00,
2013-01-11 11:01:00,44.4,41.1,28.82,ESE,106,4.0,6.7,88,0.04,,---,0.04,VWS V13.00,2013-01-11 16:01:00,
2013-01-11 11:06:00,44.4,41.4,28.82,NE,51,3.1,6.7,89,0.04,,---,0.04,VWS V13.00,2013-01-11 16:06:00,
2013-01-11 11:11:00,44.4,41.7,28.82,East,97,4.0,6.7,90,0.04,,---,0.04,VWS V13.00,2013-01-11 16:11:00,
2013-01-11 11:16:00,44.2,41.8,28.82,ESE,102,0.0,6.7,91,0.08,,---,0.08,VWS V13.00,2013-01-11 16:16:00,
2013-01-11 11:21:00,44.4,42.2,28.82,ESE,107,2.7,3.6,92,0.08,,---,0.08,VWS V13.00,2013-01-11 16:21:00,
2013-01-11 11:26:00,44.2,42.6,28.82,East,86,3.1,5.8,94,0.16,,---,0.16,VWS V13.00,2013-01-11 16:26:00,
2013-01-11 11:31:00,44.2,43.2,28.82,ENE,72,4.0,5.8,96,0.16,,---,0.16,VWS V13.00,2013-01-11 16:31:00,
2013-01-11 11:36:00,44.2,43.4,28.82,ENE,64,7.6,8.7,97,0.16,,---,0.16,VWS V13.00,2013-01-11 16:36:00,
2013-01-11 11:41:00,44.4,43.6,28.79,ENE,73,5.4,5.4,97,0.16,,---,0.16,VWS V13.00,2013-01-11 16:41:00,
2013-01-11 11:46:00,44.6,43.8,28.79,ENE,77,5.4,5.8,97,0.20,,---,0.20,VWS V13.00,2013-01-11 16:46:00,
2013-01-11 11:52:00,44.6,43.8,28.79,ENE,70,0.0,5.8,97,0.24,,---,0.24,VWS V13.00,2013-01-11 16:52:00,
2013-01-11 11:57:00,44.6,44.1,28.79,ENE,70,0.0,5.8,98,0.24,,---,0.24,VWS V13.00,2013-01-11 16:57:00,
2013-01-11 12:02:00,44.6,44.1,28.79,NE,55,0.0,0.0,98,0.24,,---,0.28,VWS V13.00,2013-01-11 17:02:00,
2013-01-11 12:07:00,44.4,43.9,28.79,WNW,282,2.7,3.6,98,0.24,,---,0.28,VWS V13.00,2013-01-11 17:07:00,
2013-01-11 12:12:00,44.6,44.1,28.82,WNW,282,0.0,3.6,98,0.24,,---,0.28,VWS V13.00,2013-01-11 17:12:00,
2013-01-11 12:17:00,44.2,43.7,28.82,WNW,283,0.0,3.6,98,0.24,,---,0.28,VWS V13.00,2013-01-11 17:17:00,
2013-01-11 12:22:00,44.2,43.7,28.82,ENE,74,5.4,5.4,98,0.24,,---,0.31,VWS V13.00,2013-01-11 17:22:00,
2013-01-11 12:27:00,43.7,43.2,28.79,WNW,301,2.7,6.3,98,0.24,,---,0.31,VWS V13.00,2013-01-11 17:27:00,
2013-01-11 12:33:00,43.7,43.2,28.79,NE,48,3.1,6.3,98,0.24,,---,0.31,VWS V13.00,2013-01-11 17:33:00,
2013-01-11 12:38:00,43.5,43.0,28.79,NE,53,0.0,6.3,98,0.24,,---,0.31,VWS V13.00,2013-01-11 17:38:00,
2013-01-11 12:43:00,44.1,43.5,28.79,NE,36,0.0,6.3,98,0.16,,---,0.31,VWS V13.00,2013-01-11 17:43:00,
2013-01-11 12:48:00,44.1,43.5,28.79,East,81,3.6,6.3,98,0.16,,---,0.31,VWS V13.00,2013-01-11 17:48:00,
2013-01-11 12:53:00,44.4,43.9,28.79,ENE,63,0.0,6.3,98,0.16,,---,0.31,VWS V13.00,2013-01-11 17:53:00,
2013-01-11 12:58:00,44.8,44.2,28.79,East,82,4.0,6.3,98,0.16,,---,0.31,VWS V13.00,2013-01-11 17:58:00,
2013-01-11 13:03:00,44.8,44.2,28.79,ENE,59,3.1,5.4,98,0.04,,---,0.31,VWS V13.00,2013-01-11 18:03:00,
2013-01-11 13:08:00,45.1,44.6,28.79,ENE,60,5.4,6.3,98,0.04,,---,0.31,VWS V13.00,2013-01-11 18:08:00,
2013-01-11 13:13:00,45.3,44.8,28.79,East,81,4.0,6.3,98,0.04,,---,0.31,VWS V13.00,2013-01-11 18:13:00,
2013-01-11 13:19:00,45.5,45.0,28.79,ENE,78,3.6,6.3,98,0.04,,---,0.31,VWS V13.00,2013-01-11 18:19:00,
2013-01-11 13:24:00,45.9,45.3,28.79,East,81,0.0,6.3,98,0.00,,---,0.31,VWS V13.00,2013-01-11 18:24:00,
2013-01-11 13:29:00,46.0,45.5,28.76,ENE,71,2.2,6.3,98,0.00,,---,0.31,VWS V13.00,2013-01-11 18:29:00,
2013-01-11 13:34:00,46.4,45.9,28.76,ESE,112,3.6,6.3,98,0.00,,---,0.31,VWS V13.00,2013-01-11 18:34:00,
2013-01-11 13:39:00,46.6,46.0,28.76,NE,50,3.1,6.3,98,0.00,,---,0.31,VWS V13.00,2013-01-11 18:39:00,
2013-01-11 13:44:00,46.8,46.2,28.76,NE,53,3.6,4.0,98,0.00,,---,0.31,VWS V13.00,2013-01-11 18:44:00,
2013-01-11 13:49:00,46.9,46.4,28.76,East,83,4.0,5.4,98,0.00,,---,0.31,VWS V13.00,2013-01-11 18:49:00,
2013-01-11 13:54:00,46.9,46.4,28.76,East,85,3.6,5.4,98,0.00,,---,0.31,VWS V13.00,2013-01-11 18:54:00,
2013-01-11 14:00:00,47.3,46.8,28.76,South,188,0.0,5.4,98,0.00,,---,0.31,VWS V13.00,2013-01-11 19:00:00,
2013-01-11 14:05:00,47.7,47.1,28.76,ENE,70,2.7,6.3,98,0.00,,---,0.31,VWS V13.00,2013-01-11 19:05:00,
2013-01-11 14:10:00,47.8,47.3,28.76,East,97,0.0,6.3,98,0.00,,---,0.31,VWS V13.00,2013-01-11 19:10:00,
2013-01-11 14:15:00,48.2,47.7,28.76,WSW,244,2.7,6.3,98,0.00,,---,0.31,VWS V13.00,2013-01-11 19:15:00,
2013-01-11 14:20:00,48.4,47.8,28.76,South,169,2.7,2.7,98,0.00,,---,0.31,VWS V13.00,2013-01-11 19:20:00,
2013-01-11 14:25:00,48.7,48.2,28.76,SE,136,3.6,4.5,98,0.04,,---,0.35,VWS V13.00,2013-01-11 19:25:00,
2013-01-11 14:30:00,48.9,48.4,28.76,ESE,107,2.7,5.8,98,0.04,,---,0.35,VWS V13.00,2013-01-11 19:30:00,
2013-01-11 14:35:00,49.5,48.9,28.76,SE,137,3.6,5.8,98,0.04,,---,0.35,VWS V13.00,2013-01-11 19:35:00,
2013-01-11 14:41:00,49.8,49.3,28.76,South,169,2.7,3.6,98,0.04,,---,0.35,VWS V13.00,2013-01-11 19:41:00,
2013-01-11 14:46:00,50.5,50.0,28.76,SSE,166,0.0,3.6,98,0.04,,---,0.35,VWS V13.00,2013-01-11 19:46:00,
2013-01-11 14:51:00,50.9,50.4,28.76,WSW,244,0.0,6.3,98,0.04,,---,0.35,VWS V13.00,2013-01-11 19:51:00,
2013-01-11 14:56:00,50.9,50.4,28.73,WNW,299,2.7,7.6,98,0.04,,---,0.35,VWS V13.00,2013-01-11 19:56:00,
2013-01-11 15:01:00,50.7,50.2,28.73,SW,224,0.0,5.8,98,0.04,,---,0.35,VWS V13.00,2013-01-11 20:01:00,
2013-01-11 15:06:00,51.1,50.5,28.73,SSW,200,2.7,6.3,98,0.04,,---,0.35,VWS V13.00,2013-01-11 20:06:00,
2013-01-11 15:11:00,50.9,50.4,28.76,SSE,149,0.0,6.3,98,0.04,,---,0.35,VWS V13.00,2013-01-11 20:11:00,
2013-01-11 15:16:00,51.3,50.7,28.76,WSW,240,0.0,6.3,98,0.04,,---,0.35,VWS V13.00,2013-01-11 20:16:00,
2013-01-11 15:21:00,52.2,51.6,28.76,SE,132,2.7,2.7,98,0.04,,---,0.35,VWS V13.00,2013-01-11 20:21:00,
2013-01-11 15:27:00,53.1,52.5,28.76,WSW,257,2.7,4.9,98,0.04,,---,0.35,VWS V13.00,2013-01-11 20:27:00,
2013-01-11 15:32:00,53.2,52.7,28.76,West,279,4.0,9.6,98,0.04,,---,0.35,VWS V13.00,2013-01-11 20:32:00,
2013-01-11 15:37:00,53.4,52.9,28.76,WSW,257,3.1,9.6,98,0.04,,---,0.35,VWS V13.00,2013-01-11 20:37:00,
2013-01-11 15:42:00,53.8,53.2,28.76,SW,235,6.3,6.7,98,0.00,,---,0.35,VWS V13.00,2013-01-11 20:42:00,
2013-01-11 15:47:00,53.8,52.7,28.76,SW,228,4.0,7.6,96,0.00,,---,0.35,VWS V13.00,2013-01-11 20:47:00,
2013-01-11 15:52:00,54.1,52.5,28.76,West,271,3.6,7.6,94,0.00,,---,0.35,VWS V13.00,2013-01-11 20:52:00,
2013-01-11 15:57:00,54.0,51.7,28.76,WSW,241,2.7,7.6,92,0.00,,---,0.35,VWS V13.00,2013-01-11 20:57:00,
2013-01-11 16:02:00,53.8,51.5,28.76,SSW,208,3.1,5.4,92,0.00,,---,0.35,VWS V13.00,2013-01-11 21:02:00,
2013-01-11 16:07:00,54.0,51.7,28.76,West,274,4.0,6.3,92,0.00,,---,0.35,VWS V13.00,2013-01-11 21:07:00,
2013-01-11 16:12:00,54.1,51.9,28.76,WSW,245,0.0,6.3,92,0.00,,---,0.35,VWS V13.00,2013-01-11 21:12:00,
2013-01-11 16:17:00,54.9,52.3,28.76,SSE,160,0.0,6.3,91,0.00,,---,0.35,VWS V13.00,2013-01-11 21:17:00,
2013-01-11 16:22:00,54.7,51.5,28.76,SSW,200,3.1,4.9,89,0.00,,---,0.35,VWS V13.00,2013-01-11 21:22:00,
2013-01-11 16:27:00,54.7,51.5,28.76,West,266,0.0,4.9,89,0.00,,---,0.35,VWS V13.00,2013-01-11 21:27:00,
2013-01-11 16:32:00,54.9,52.0,28.76,West,266,0.0,4.9,90,0.00,,---,0.35,VWS V13.00,2013-01-11 21:32:00,
2013-01-11 16:38:00,54.7,51.5,28.76,SSE,150,0.0,4.9,89,0.00,,---,0.35,VWS V13.00,2013-01-11 21:38:00,
2013-01-11 16:43:00,54.5,51.3,28.76,WSW,247,0.0,4.0,89,0.00,,---,0.35,VWS V13.00,2013-01-11 21:43:00,
2013-01-11 16:48:00,54.1,51.3,28.76,WSW,251,0.0,4.0,90,0.00,,---,0.35,VWS V13.00,2013-01-11 21:48:00,
2013-01-11 16:53:00,54.3,51.5,28.76,WSW,246,0.0,4.0,90,0.00,,---,0.35,VWS V13.00,2013-01-11 21:53:00,
2013-01-11 16:58:00,53.8,50.9,28.76,SW,235,3.6,4.9,90,0.00,,---,0.35,VWS V13.00,2013-01-11 21:58:00,
2013-01-11 17:03:00,54.0,51.4,28.76,WSW,241,2.7,3.6,91,0.00,,---,0.35,VWS V13.00,2013-01-11 22:03:00,
2013-01-11 17:08:00,53.6,51.0,28.76,West,260,0.0,4.9,91,0.00,,---,0.35,VWS V13.00,2013-01-11 22:08:00,
2013-01-11 17:13:00,53.6,51.0,28.76,WSW,253,3.1,5.8,91,0.00,,---,0.35,VWS V13.00,2013-01-11 22:13:00,
2013-01-11 17:18:00,53.6,51.0,28.76,SW,233,0.0,5.8,91,0.00,,---,0.35,VWS V13.00,2013-01-11 22:18:00,
2013-01-11 17:23:00,53.6,51.0,28.76,West,264,0.0,3.1,91,0.00,,---,0.35,VWS V13.00,2013-01-11 22:23:00,
2013-01-11 17:28:00,53.4,51.2,28.79,SSE,163,0.0,3.6,92,0.00,,---,0.35,VWS V13.00,2013-01-11 22:28:00,
2013-01-11 17:33:00,52.7,50.5,28.79,WNW,298,2.7,3.6,92,0.00,,---,0.35,VWS V13.00,2013-01-11 22:33:00,
2013-01-11 17:38:00,52.7,50.5,28.79,WNW,298,0.0,3.6,92,0.00,,---,0.35,VWS V13.00,2013-01-11 22:38:00,
2013-01-11 17:43:00,52.7,50.7,28.79,WNW,298,0.0,0.0,93,0.00,,---,0.35,VWS V13.00,2013-01-11 22:43:00,
2013-01-11 17:49:00,52.5,51.1,28.79,WNW,297,2.7,2.7,95,0.00,,---,0.35,VWS V13.00,2013-01-11 22:49:00,
2013-01-11 17:54:00,52.7,51.3,28.79,WNW,289,0.0,3.1,95,0.00,,---,0.35,VWS V13.00,2013-01-11 22:54:00,
2013-01-11 17:59:00,52.7,51.3,28.79,WNW,289,0.0,3.1,95,0.00,,---,0.35,VWS V13.00,2013-01-11 22:59:00,
2013-01-11 18:04:00,52.5,51.1,28.79,WNW,289,0.0,0.0,95,0.00,,---,0.35,VWS V13.00,2013-01-11 23:04:00,
2013-01-11 18:09:00,52.5,51.1,28.79,WNW,285,0.0,0.0,95,0.00,,---,0.35,VWS V13.00,2013-01-11 23:09:00,
2013-01-11 18:14:00,52.0,50.6,28.79,WNW,284,0.0,0.0,95,0.00,,---,0.35,VWS V13.00,2013-01-11 23:14:00,
2013-01-11 18:19:00,52.2,50.8,28.79,WNW,284,0.0,0.0,95,0.00,,---,0.35,VWS V13.00,2013-01-11 23:19:00,
2013-01-11 18:24:00,52.0,50.9,28.79,WNW,284,0.0,0.0,96,0.00,,---,0.35,VWS V13.00,2013-01-11 23:24:00,
2013-01-11 18:29:00,51.8,50.7,28.79,WNW,284,0.0,0.0,96,0.00,,---,0.35,VWS V13.00,2013-01-11 23:29:00,
2013-01-11 18:34:00,51.6,50.5,28.79,WNW,284,0.0,0.0,96,0.00,,---,0.35,VWS V13.00,2013-01-11 23:34:00,
2013-01-11 18:39:00,51.4,50.6,28.79,WNW,284,0.0,0.0,97,0.00,,---,0.35,VWS V13.00,2013-01-11 23:39:00,
2013-01-11 18:45:00,51.6,51.1,28.79,WNW,284,0.0,0.0,98,0.00,,---,0.35,VWS V13.00,2013-01-11 23:45:00,
2013-01-11 18:50:00,51.4,50.9,28.79,WNW,284,0.0,0.0,98,0.00,,---,0.35,VWS V13.00,2013-01-11 23:50:00,
2013-01-11 18:55:00,51.1,50.5,28.79,WSW,255,0.0,0.0,98,0.00,,---,0.35,VWS V13.00,2013-01-11 23:55:00,
2013-01-11 19:00:00,50.4,49.8,28.79,WSW,242,0.0,2.7,98,0.00,,---,0.35,VWS V13.00,2013-01-12 00:00:00,
2013-01-11 19:05:00,51.4,50.9,28.79,WSW,258,3.6,3.6,98,0.00,,---,0.35,VWS V13.00,2013-01-12 00:05:00,
2013-01-11 19:10:00,51.3,50.7,28.79,WSW,258,0.0,3.6,98,0.00,,---,0.35,VWS V13.00,2013-01-12 00:10:00,
2013-01-11 19:15:00,51.1,50.5,28.79,WSW,258,0.0,3.6,98,0.00,,---,0.35,VWS V13.00,2013-01-12 00:15:00,
2013-01-11 19:20:00,51.1,50.5,28.79,WSW,258,0.0,0.0,98,0.00,,---,0.35,VWS V13.00,2013-01-12 00:20:00,
2013-01-11 19:25:00,50.9,50.4,28.79,WSW,258,0.0,0.0,98,0.00,,---,0.35,VWS V13.00,2013-01-12 00:25:00,
2013-01-11 19:30:00,50.9,50.4,28.79,WSW,258,0.0,0.0,98,0.00,,---,0.35,VWS V13.00,2013-01-12 00:30:00,
2013-01-11 19:35:00,50.5,50.0,28.79,WSW,258,0.0,0.0,98,0.00,,---,0.35,VWS V13.00,2013-01-12 00:35:00,
2013-01-11 19:40:00,50.5,50.0,28.82,WSW,258,0.0,0.0,98,0.00,,---,0.35,VWS V13.00,2013-01-12 00:40:00,
2013-01-11 19:45:00,50.4,49.8,28.82,WSW,258,0.0,0.0,98,0.00,,---,0.35,VWS V13.00,2013-01-12 00:45:00,
2013-01-11 19:50:00,50.4,49.8,28.82,WSW,258,0.0,0.0,98,0.00,,---,0.35,VWS V13.00,2013-01-12 00:50:00,
2013-01-11 19:55:00,50.4,49.8,28.79,WSW,258,0.0,2.7,98,0.00,,---,0.35,VWS V13.00,2013-01-12 00:55:00,
2013-01-11 20:00:00,49.6,49.1,28.79,WSW,258,0.0,0.0,98,0.00,,---,0.35,VWS V13.00,2013-01-12 01:00:00,
2013-01-11 20:05:00,49.6,49.1,28.79,WSW,258,0.0,0.0,98,0.00,,---,0.35,VWS V13.00,2013-01-12 01:05:00,
2013-01-11 20:10:00,49.1,48.6,28.82,WSW,258,0.0,2.2,98,0.00,,---,0.35,VWS V13.00,2013-01-12 01:10:00,
2013-01-11 20:16:00,48.2,47.7,28.82,WSW,258,0.0,2.2,98,0.00,,---,0.35,VWS V13.00,2013-01-12 01:16:00,
2013-01-11 20:21:00,48.2,47.7,28.82,WSW,258,0.0,0.0,98,0.00,,---,0.35,VWS V13.00,2013-01-12 01:21:00,
2013-01-11 20:26:00,47.5,47.0,28.82,WSW,258,0.0,0.0,98,0.00,,---,0.35,VWS V13.00,2013-01-12 01:26:00,
2013-01-11 20:31:00,47.7,47.1,28.82,WSW,258,0.0,0.0,98,0.00,,---,0.35,VWS V13.00,2013-01-12 01:31:00,
2013-01-11 20:36:00,47.3,46.8,28.82,WSW,258,0.0,0.0,98,0.00,,---,0.35,VWS V13.00,2013-01-12 01:36:00,
2013-01-11 20:41:00,46.9,46.4,28.82,WSW,258,0.0,0.0,98,0.00,,---,0.35,VWS V13.00,2013-01-12 01:41:00,
2013-01-11 20:46:00,47.5,47.0,28.82,WSW,258,0.0,0.0,98,0.00,,---,0.35,VWS V13.00,2013-01-12 01:46:00,
2013-01-11 20:51:00,47.5,47.0,28.82,WSW,258,0.0,0.0,98,0.00,,---,0.35,VWS V13.00,2013-01-12 01:51:00,
2013-01-11 20:56:00,47.1,46.6,28.82,WSW,258,0.0,0.0,98,0.00,,---,0.35,VWS V13.00,2013-01-12 01:56:00,
2013-01-11 21:01:00,46.2,45.7,28.82,WSW,258,0.0,0.0,98,0.00,,---,0.35,VWS V13.00,2013-01-12 02:01:00,
2013-01-11 21:06:00,45.9,45.3,28.82,WSW,258,0.0,0.0,98,0.00,,---,0.35,VWS V13.00,2013-01-12 02:06:00,
2013-01-11 21:11:00,45.5,45.0,28.82,WSW,258,0.0,0.0,98,0.00,,---,0.35,VWS V13.00,2013-01-12 02:11:00,
2013-01-11 21:16:00,45.0,44.4,28.82,WSW,258,0.0,0.0,98,0.00,,---,0.35,VWS V13.00,2013-01-12 02:16:00,
2013-01-11 21:21:00,45.5,45.0,28.82,WSW,258,0.0,0.0,98,0.00,,---,0.35,VWS V13.00,2013-01-12 02:21:00,
2013-01-11 21:26:00,45.3,44.8,28.82,WSW,258,0.0,0.0,98,0.00,,---,0.35,VWS V13.00,2013-01-12 02:26:00,
2013-01-11 21:32:00,45.9,45.3,28.82,WSW,258,0.0,0.0,98,0.00,,---,0.35,VWS V13.00,2013-01-12 02:32:00,
2013-01-11 21:37:00,45.1,44.6,28.82,WSW,258,0.0,0.0,98,0.00,,---,0.35,VWS V13.00,2013-01-12 02:37:00,
2013-01-11 21:42:00,43.2,42.6,28.82,WSW,258,0.0,2.7,98,0.00,,---,0.35,VWS V13.00,2013-01-12 02:42:00,
2013-01-11 21:47:00,44.4,43.9,28.82,WSW,258,0.0,2.7,98,0.00,,---,0.35,VWS V13.00,2013-01-12 02:47:00,
2013-01-11 21:52:00,44.1,43.5,28.82,WSW,258,0.0,2.7,98,0.00,,---,0.35,VWS V13.00,2013-01-12 02:52:00,
2013-01-11 21:57:00,44.1,43.5,28.82,WSW,258,0.0,2.7,98,0.00,,---,0.35,VWS V13.00,2013-01-12 02:57:00,
2013-01-11 22:02:00,44.6,44.1,28.82,WSW,258,0.0,0.0,98,0.00,,---,0.35,VWS V13.00,2013-01-12 03:02:00,
2013-01-11 22:07:00,45.3,44.8,28.82,WSW,258,0.0,0.0,98,0.00,,---,0.35,VWS V13.00,2013-01-12 03:07:00,
2013-01-11 22:12:00,46.2,45.7,28.82,WSW,258,0.0,0.0,98,0.00,,---,0.35,VWS V13.00,2013-01-12 03:12:00,
2013-01-11 22:17:00,45.9,45.3,28.82,WSW,258,2.7,3.1,98,0.00,,---,0.35,VWS V13.00,2013-01-12 03:17:00,
2013-01-11 22:22:00,43.9,43.3,28.82,WSW,258,0.0,0.0,98,0.00,,---,0.35,VWS V13.00,2013-01-12 03:22:00,
2013-01-11 22:27:00,45.3,44.8,28.82,WSW,258,0.0,0.0,98,0.00,,---,0.35,VWS V13.00,2013-01-12 03:27:00,
2013-01-11 22:32:00,47.1,46.6,28.82,WSW,258,0.0,3.1,98,0.00,,---,0.35,VWS V13.00,2013-01-12 03:32:00,
2013-01-11 22:37:00,44.6,44.1,28.82,WSW,258,0.0,3.1,98,0.00,,---,0.35,VWS V13.00,2013-01-12 03:37:00,
2013-01-11 22:43:00,47.8,47.3,28.82,WSW,258,0.0,2.2,98,0.00,,---,0.35,VWS V13.00,2013-01-12 03:43:00,
2013-01-11 22:48:00,48.4,47.8,28.82,WSW,258,0.0,2.2,98,0.00,,---,0.35,VWS V13.00,2013-01-12 03:48:00,
2013-01-11 22:53:00,49.1,48.6,28.82,WSW,258,0.0,2.2,98,0.00,,---,0.35,VWS V13.00,2013-01-12 03:53:00,
2013-01-11 22:58:00,49.3,48.7,28.82,WSW,258,0.0,2.7,98,0.00,,---,0.35,VWS V13.00,2013-01-12 03:58:00,
2013-01-11 23:03:00,49.5,48.9,28.82,WSW,258,0.0,0.0,98,0.00,,---,0.35,VWS V13.00,2013-01-12 04:03:00,
2013-01-11 23:08:00,50.2,49.6,28.82,West,266,3.1,3.6,98,0.00,,---,0.35,VWS V13.00,2013-01-12 04:08:00,
2013-01-11 23:13:00,50.0,49.5,28.82,WSW,247,0.0,3.6,98,0.00,,---,0.35,VWS V13.00,2013-01-12 04:13:00,
2013-01-11 23:18:00,50.2,49.6,28.82,West,265,0.0,4.9,98,0.00,,---,0.35,VWS V13.00,2013-01-12 04:18:00,
2013-01-11 23:23:00,50.2,49.6,28.82,SW,234,0.0,3.6,98,0.00,,---,0.35,VWS V13.00,2013-01-12 04:23:00,
2013-01-11 23:28:00,50.0,49.5,28.82,SW,234,0.0,3.6,98,0.00,,---,0.35,VWS V13.00,2013-01-12 04:28:00,
2013-01-11 23:33:00,50.0,49.5,28.82,SW,222,0.0,3.6,98,0.00,,---,0.35,VWS V13.00,2013-01-12 04:33:00,
2013-01-11 23:38:00,50.2,49.6,28.82,WNW,301,0.0,3.6,98,0.00,,---,0.35,VWS V13.00,2013-01-12 04:38:00,
2013-01-11 23:43:00,50.5,50.0,28.82,West,259,0.0,3.6,98,0.00,,---,0.35,VWS V13.00,2013-01-12 04:43:00,
2013-01-11 23:48:00,50.2,49.6,28.82,SSE,150,0.0,3.6,98,0.00,,---,0.35,VWS V13.00,2013-01-12 04:48:00,
2013-01-11 23:53:00,50.2,49.6,28.82,SSE,151,0.0,3.6,98,0.00,,---,0.35,VWS V13.00,2013-01-12 04:53:00,
2013-01-11 23:59:00,50.4,49.8,28.82,WSW,255,0.0,3.6,98,0.00,,---,0.35,VWS V13.00,2013-01-12 04:59:00,